CE3JSG-13 Weather Reports


time (UTC)temp
C
wind
direction
speed
KPH
gust
KPH
rain 1hr
cm
rain 24hr
cm
rain mn
cm
humidity
%
barometer
mb
20260507153723 16 0.0 0.0 0.00 0.00 0.00 58 1025.7
20260507153023 17 0.0 0.0 0.00 0.00 0.00 57 1025.5
20260507152323 17 0.0 0.0 0.00 0.00 0.00 55 1028.3
20260507151623 20 0.0 0.0 0.00 0.00 0.00 50 1020.8
20260507150923 17 0.0 0.0 0.00 0.00 0.00 54 1027.4
20260507150223 19 0.0 0.0 0.00 0.00 0.00 52 1024.0
20260507145523 19 0.0 0.0 0.00 0.00 0.00 54 1020.5
20260507144823 17 0.0 0.0 0.00 0.00 0.00 58 1026.1
20260507144123 17 0.0 0.0 0.00 0.00 0.00 58 1023.9
20260507143422 17 0.0 0.0 0.00 0.00 0.00 61 1026.1
20260507142723 18 0.0 0.0 0.00 0.00 0.00 58 1024.3
20260507142022 17 0.0 0.0 0.00 0.00 0.00 62 1022.4
20260507141323 16 0.0 0.0 0.00 0.00 0.00 69 1022.9
20260507140623 14 0.0 0.0 0.00 0.00 0.00 74 1027.5
20260507135923 15 0.0 0.0 0.00 0.00 0.00 70 1025.5
20260507135223 15 0.0 0.0 0.00 0.00 0.00 72 1022.6
20260507134522 14 0.0 0.0 0.00 0.00 0.00 81 1024.2
20260507133823 13 0.0 0.0 0.00 0.00 0.00 88 1025.0
20260507133122 12 0.0 0.0 0.00 0.00 0.00 92 1026.0
20260507132423 12 0.0 0.0 0.00 0.00 0.00 92 1027.3
20260507131722 13 0.0 0.0 0.00 0.00 0.00 88 1024.9
20260507131023 13 0.0 0.0 0.00 0.00 0.00 93 1025.1
20260507130323 12 0.0 0.0 0.00 0.00 0.00 96 1026.2
20260507125623 12 0.0 0.0 0.00 0.00 0.00 94 1025.4
20260507124923 12 0.0 0.0 0.00 0.00 0.00 96 1025.9
20260507124223 12 0.0 0.0 0.00 0.00 0.00 97 1024.9
20260507123523 12 0.0 0.0 0.00 0.00 0.00 10 1025.7
20260507122823 12 0.0 0.0 0.00 0.00 0.00 10 1025.4
20260507122123 11 0.0 0.0 0.00 0.00 0.00 10 1025.6
20260507121423 11 0.0 0.0 0.00 0.00 0.00 10 1026.2
20260507120724 12 0.0 0.0 0.00 0.00 0.00 10 1025.3
20260507120023 11 0.0 0.0 0.00 0.00 0.00 10 1025.4
20260507115323 11 0.0 0.0 0.00 0.00 0.00 10 1025.5
20260507114623 11 0.0 0.0 0.00 0.00 0.00 99 1025.2
20260507113922 11 0.0 0.0 0.00 0.00 0.00 99 1025.7
20260507113223 12 0.0 0.0 0.00 0.00 0.00 96 1026.0
20260507112523 12 0.0 0.0 0.00 0.00 0.00 93 1024.7
20260507111823 12 0.0 0.0 0.00 0.00 0.00 95 1023.8
20260507111123 11 0.0 0.0 0.00 0.00 0.00 10 1024.5
20260507110423 11 0.0 0.0 0.00 0.00 0.00 10 1025.3
20260507105722 11 0.0 0.0 0.00 0.00 0.00 10 1025.8
20260507105023 12 0.0 0.0 0.00 0.00 0.00 98 1025.1
20260507104323 12 0.0 0.0 0.00 0.00 0.00 93 1025.2
20260507103623 12 0.0 0.0 0.00 0.00 0.00 93 1023.8
20260507102922 12 0.0 0.0 0.00 0.00 0.00 96 1024.4
20260507102223 12 0.0 0.0 0.00 0.00 0.00 96 1024.1
20260507101523 12 0.0 0.0 0.00 0.00 0.00 97 1024.5
20260507100823 12 0.0 0.0 0.00 0.00 0.00 98 1024.2
20260507100122 11 0.0 0.0 0.00 0.00 0.00 10 1024.3
20260507095423 11 0.0 0.0 0.00 0.00 0.00 10 1024.3
20260507094722 11 0.0 0.0 0.00 0.00 0.00 99 1024.6
20260507094023 12 0.0 0.0 0.00 0.00 0.00 99 1023.9
20260507093322 11 0.0 0.0 0.00 0.00 0.00 10 1024.6
20260507092623 12 0.0 0.0 0.00 0.00 0.00 97 1024.2
20260507091923 12 0.0 0.0 0.00 0.00 0.00 97 1024.4
20260507091223 12 0.0 0.0 0.00 0.00 0.00 96 1024.3
20260507090523 12 0.0 0.0 0.00 0.00 0.00 94 1024.0
20260507085823 12 0.0 0.0 0.00 0.00 0.00 93 1023.1
20260507085123 12 0.0 0.0 0.00 0.00 0.00 95 1023.3
20260507084423 12 0.0 0.0 0.00 0.00 0.00 95 1023.1
20260507083723 12 0.0 0.0 0.00 0.00 0.00 97 1023.2
20260507083023 12 0.0 0.0 0.00 0.00 0.00 10 1022.7
20260507082323 11 0.0 0.0 0.00 0.00 0.00 10 1023.8
20260507081623 11 0.0 0.0 0.00 0.00 0.00 10 1022.8
20260507080923 11 0.0 0.0 0.00 0.00 0.00 10 1023.7
20260507080223 11 0.0 0.0 0.00 0.00 0.00 10 1023.5
20260507075523 11 0.0 0.0 0.00 0.00 0.00 10 1024.0
20260507074823 11 0.0 0.0 0.00 0.00 0.00 10 1023.7
20260507074123 11 0.0 0.0 0.00 0.00 0.00 10 1023.8
20260507073423 11 0.0 0.0 0.00 0.00 0.00 10 1023.6
20260507072723 11 0.0 0.0 0.00 0.00 0.00 10 1023.0
20260507072023 11 0.0 0.0 0.00 0.00 0.00 10 1023.6
20260507071322 11 0.0 0.0 0.00 0.00 0.00 10 1023.7
20260507070623 11 0.0 0.0 0.00 0.00 0.00 10 1023.3
20260507065923 11 0.0 0.0 0.00 0.00 0.00 10 1024.0
20260507065222 11 0.0 0.0 0.00 0.00 0.00 10 1023.5
20260507064522 11 0.0 0.0 0.00 0.00 0.00 10 1023.6
20260507063823 11 0.0 0.0 0.00 0.00 0.00 10 1023.8
20260507063123 11 0.0 0.0 0.00 0.00 0.00 10 1023.4
20260507062423 11 0.0 0.0 0.00 0.00 0.00 10 1023.9
20260507061723 11 0.0 0.0 0.00 0.00 0.00 10 1023.8
20260507061023 11 0.0 0.0 0.00 0.00 0.00 10 1023.9
20260507060323 11 0.0 0.0 0.00 0.00 0.00 10 1023.9
20260507055623 11 0.0 0.0 0.00 0.00 0.00 10 1023.9
20260507054923 11 0.0 0.0 0.00 0.00 0.00 10 1023.6
20260507054223 11 0.0 0.0 0.00 0.00 0.00 10 1023.8
20260507053523 11 0.0 0.0 0.00 0.00 0.00 10 1023.3
20260507052823 11 0.0 0.0 0.00 0.00 0.00 10 1023.1
20260507052122 11 0.0 0.0 0.00 0.00 0.00 10 1022.8
20260507051422 11 0.0 0.0 0.00 0.00 0.00 10 1023.0
20260507050723 11 0.0 0.0 0.00 0.00 0.00 10 1023.3
20260507050023 11 0.0 0.0 0.00 0.00 0.00 10 1022.9
20260507045323 11 0.0 0.0 0.00 0.00 0.00 10 1023.0
20260507044623 11 0.0 0.0 0.00 0.00 0.00 10 1023.3
20260507043923 12 0.0 0.0 0.00 0.00 0.00 10 1023.3
20260507043223 12 0.0 0.0 0.00 0.00 0.00 10 1023.3
20260507042523 12 0.0 0.0 0.00 0.00 0.00 10 1023.1
20260507041823 12 0.0 0.0 0.00 0.00 0.00 10 1022.8
20260507041123 12 0.0 0.0 0.00 0.00 0.00 10 1023.1
20260507040423 12 0.0 0.0 0.00 0.00 0.00 10 1023.2
20260507035723 12 0.0 0.0 0.00 0.00 0.00 10 1023.0
20260507035023 12 0.0 0.0 0.00 0.00 0.00 10 1023.0
20260507034323 12 0.0 0.0 0.00 0.00 0.00 10 1023.0
20260507033622 12 0.0 0.0 0.00 0.00 0.00 10 1022.7
20260507032923 12 0.0 0.0 0.00 0.00 0.00 10 1022.4
20260507032222 12 0.0 0.0 0.00 0.00 0.00 10 1022.6
20260507031522 12 0.0 0.0 0.00 0.00 0.00 10 1022.8
20260507030823 12 0.0 0.0 0.00 0.00 0.00 10 1023.2
20260507030123 12 0.0 0.0 0.00 0.00 0.00 10 1022.4
20260507025422 12 0.0 0.0 0.00 0.00 0.00 10 1022.8
20260507024722 12 0.0 0.0 0.00 0.00 0.00 10 1022.0
20260507024023 12 0.0 0.0 0.00 0.00 0.00 10 1022.1
20260507023322 12 0.0 0.0 0.00 0.00 0.00 10 1022.4
20260507022623 12 0.0 0.0 0.00 0.00 0.00 10 1021.6
20260507021922 12 0.0 0.0 0.00 0.00 0.00 10 1022.0
20260507021223 12 0.0 0.0 0.00 0.00 0.00 10 1021.8
20260507020523 12 0.0 0.0 0.00 0.00 0.00 10 1021.6
20260507015823 12 0.0 0.0 0.00 0.00 0.00 10 1021.9
20260507015123 12 0.0 0.0 0.00 0.00 0.00 10 1021.6
20260507014422 12 0.0 0.0 0.00 0.00 0.00 10 1021.8
20260507013722 12 0.0 0.0 0.00 0.00 0.00 10 1022.1
20260507013022 12 0.0 0.0 0.00 0.00 0.00 10 1022.1
20260507012322 12 0.0 0.0 0.00 0.00 0.00 10 1021.9
20260507011623 12 0.0 0.0 0.00 0.00 0.00 10 1021.9
20260507010923 12 0.0 0.0 0.00 0.00 0.00 10 1021.6
20260507010222 12 0.0 0.0 0.00 0.00 0.00 10 1021.6
20260507005523 12 0.0 0.0 0.00 0.00 0.00 10 1021.8
20260507004822 12 0.0 0.0 0.00 0.00 0.00 10 1021.7
20260507004123 12 0.0 0.0 0.00 0.00 0.00 10 1021.9
20260507003423 13 0.0 0.0 0.00 0.00 0.00 10 1021.7
20260507002722 13 0.0 0.0 0.00 0.00 0.00 10 1021.0
20260507002023 13 0.0 0.0 0.00 0.00 0.00 10 1021.0
20260507001323 13 0.0 0.0 0.00 0.00 0.00 10 1020.6
20260507000623 13 0.0 0.0 0.00 0.00 0.00 10 1021.0
20260506235922 13 0.0 0.0 0.00 0.00 0.00 10 1020.8
20260506235223 13 0.0 0.0 0.00 0.00 0.00 10 1021.0
20260506234522 13 0.0 0.0 0.00 0.00 0.00 10 1020.9
20260506233823 13 0.0 0.0 0.00 0.00 0.00 10 1021.2
20260506233123 13 0.0 0.0 0.00 0.00 0.00 10 1020.7
20260506232422 13 0.0 0.0 0.00 0.00 0.00 10 1020.4
20260506231722 13 0.0 0.0 0.00 0.00 0.00 10 1020.7
20260506231023 13 0.0 0.0 0.00 0.00 0.00 10 1020.1
20260506230323 13 0.0 0.0 0.00 0.00 0.00 10 1038.0